[[{"header":{"parameterUnit":"m.s-1","parameterCategory":2,"la1":30.2991,"la2":30.254,"lo1":-89.0895,"lo2":-89.0444,"dy":0.0017,"dx":0.0017,"nx":28,"ny":28,"refTime":"2026-02-04T03:00:00:Z","depth":"0","parameterNumber":2,"parameterNumberName":"U-component_of_CURRENTS"},"data":[0,0,0,0,0,0,0,0,0,0,0,0,0,0,0,0,0,0,0,0,0,0,0,0,0,0,0,0,0,0,0,0,0,0,0,0,0,0,0,0,0,0,0,0,0,0,0,0,0,0,0,0,0,0,0,0,0,0,0.3498,0.3496,0,0.3435,0.3436,0.3436,0.3459,0.3459,0.346,0.346,0.3508,0.3509,0.351,0,0,0,0,0,0,0,0,0,0,0,0,0,0.3385,0.339,0.3498,0.3496,0.3494,0.3435,0.3436,0.3436,0.3459,0.3459,0.346,0.346,0.3508,0.3509,0.351,0,0,0,0,0,0,0,0,0,0,0,0,0,0.3402,0.3391,0.3498,0.3489,0.3487,0.3435,0.3436,0.3436,0.3459,0.3459,0.346,0.346,0.3507,0.3509,0.351,0.3512,0,0,0.3515,0.3516,0,0,0,0,0,0,0,0,0.3402,0.3408,0.3492,0.349,0.3487,0.3444,0.3412,0.3462,0.3459,0.3483,0.346,0.346,0.3488,0.3491,0.3495,0.3514,0.3516,0.3515,0.3516,0.3517,0.3517,0,0,0,0,0,0,0,0.3401,0.3409,0.3486,0.349,0.3486,0.34,0.3407,0.3421,0.3496,0.3481,0.3479,0.3452,0.349,0.3494,0.3497,0.3517,0.3515,0.3516,0.3517,0.3518,0.3582,0.3582,0,0,0,0,0,0,0.3397,0.341,0.3488,0.3483,0.343,0.3402,0.341,0.3468,0.3493,0.3493,0.3452,0.3453,0.3491,0.3495,0.3498,0.3561,0.3517,0.3518,0.3519,0.3581,0.3582,0.3582,0,0,0,0,0,0,0.3396,0.3408,0.349,0.3428,0.3432,0.3405,0.3468,0.3466,0.346,0.3468,0.3472,0.3445,0.3491,0.3496,0.3546,0.3561,0.3519,0.352,0.358,0.3581,0.3582,0.3649,0,0,0,0,0,0,0.3395,0.3411,0.3453,0.3432,0.3435,0.35,0.3466,0.3464,0.3437,0.3439,0.3464,0.3469,0.3492,0.3544,0.3548,0.3562,0.3521,0.3579,0.358,0.3582,0.3645,0.3652,0.3657,0,0,0,0,0,0.3393,0.3449,0.3458,0.3464,0.3497,0.35,0.3498,0.3482,0.3436,0.3471,0.3482,0.3468,0.3554,0.3547,0.3551,0.3566,0.3578,0.358,0.3582,0.3643,0.3651,0.3657,0,0,0,0,0,0,0.3474,0.3455,0.3464,0.3531,0.3531,0.3501,0.3508,0.347,0.3498,0.3486,0.3493,0.3503,0.3551,0.3544,0.3535,0.3586,0.3556,0.3559,0.3601,0.3609,0.3615,0.3606,0.3523,0,0,0,0,0,0.3498,0.349,0.3508,0.3546,0.3565,0.3528,0.3516,0.3497,0.3499,0.3508,0.3523,0.3531,0.3559,0.3573,0.3604,0.3632,0.3652,0.3637,0.3643,0.3648,0.3643,0.3703,0.3715,0.3588,0.3588,0.3588,0,0,0.3499,0.3508,0.349,0.355,0.3549,0.3576,0.3529,0.3516,0.3518,0.3509,0.3544,0.356,0.3572,0.3625,0.3641,0.3622,0.3701,0.365,0.3655,0.3646,0.3706,0.3719,0.373,0.3589,0.3589,0.3589,0,0,0.3496,0.3564,0.3554,0.3583,0.358,0.3581,0.3575,0.3567,0.357,0.3588,0.3586,0.3611,0.3643,0.367,0.3678,0.3723,0.3736,0.3722,0.3743,0.3803,0.3815,0.3825,0.3897,0.3913,0.3719,0.3719,0.3719,0,0.3504,0.3544,0.3553,0.3594,0.3599,0.3588,0.3606,0.362,0.3615,0.3613,0.3612,0.3648,0.3661,0.3707,0.3733,0.3736,0.3782,0.372,0.3814,0.3824,0.3833,0.3904,0.3921,0.3722,0.3722,0.3721,0.3721,0,0.3498,0.3552,0.3567,0.361,0.3636,0.3647,0.3676,0.3691,0.3667,0.3662,0.3698,0.3731,0.3745,0.3755,0.376,0.3824,0.3843,0.3824,0.38,0.385,0.3922,0.3938,0.3727,0.3726,0.3725,0.3724,0,0,0.3488,0.3531,0.3559,0.3567,0.3642,0.3649,0.3692,0.3718,0.3703,0.3741,0.3738,0.3799,0.3797,0.3805,0.3819,0.3868,0.3982,0.3878,0.3879,0.3958,0.4145,0.3987,0.399,0.3996,0.3999,0.4001,0.418,0,0.349,0.3528,0.3564,0.3603,0.3632,0.3665,0.3696,0.3713,0.3728,0.3747,0.3778,0.3801,0.3825,0.3824,0.389,0.3945,0.4024,0.3937,0.4075,0.4079,0.394,0.4001,0.379,0.3916,0.4196,0.4199,0.42,0,0.3501,0.3527,0.3545,0.3572,0.3592,0.3613,0.3641,0.3662,0.371,0.3716,0.3766,0.3795,0.388,0.3877,0.4047,0.3998,0.4084,0.4136,0.4143,0.3976,0.3949,0.3904,0.3935,0.3824,0.4225,0.4223,0.4222,0,0.3461,0.3525,0.3513,0.3535,0.3574,0.3575,0.3601,0.3645,0.3646,0.3707,0.3707,0.3821,0.3849,0.3991,0.4093,0.4093,0.4265,0.4273,0.4229,0.4221,0.405,0.402,0.3986,0.4411,0.4411,0.441,0.441,0,0.3455,0.3462,0.3485,0.3492,0.3472,0.3529,0.3515,0.3547,0.3591,0.3584,0.3691,0.3709,0.3878,0.3983,0.4113,0.4202,0.4294,0.4243,0.4251,0.4067,0.4037,0.3935,0.3929,0.4417,0.4415,0.4414,0.4413,0,0.3413,0.3417,0.3405,0.3441,0.3441,0.3431,0.3457,0.3455,0.3505,0.3505,0.3525,0.3646,0.3778,0.3939,0.4139,0.4178,0.4184,0.4319,0.4086,0.4059,0.3864,0.387,0.3772,0.3679,0.4311,0.4308,0.4305,0,0.3371,0.3368,0.3369,0.3337,0.3347,0.3343,0.3339,0.3397,0.3391,0.3452,0.3442,0.3571,0.3647,0.3873,0.3964,0.4149,0.4095,0.4021,0.3955,0.3816,0.3833,0.3748,0.3673,0.3801,0.3794,0.3789,0.3785,0,0.3339,0.3336,0.3337,0.3273,0.3246,0.3209,0.3211,0.3196,0.3245,0.326,0.3299,0.3381,0.3552,0.3609,0.3776,0.3858,0.3787,0.3913,0.3841,0.3473,0.3312,0.3235,0.3745,0.3738,0.3743,0.3746,0.3748,0.375,0.3307,0.3301,0.3285,0.32,0.3151,0.3074,0.3019,0.3028,0.3006,0.2979,0.3113,0.3131,0.3249,0.3451,0.3504,0.3378,0.3505,0.3318,0.3365,0.3312,0.3101,0.3486,0.3418,0.3421,0.3423,0.3425,0.3427,0,0.329,0.3272,0.3212,0.3098,0.2983,0.2982,0.2917,0.2839,0.2777,0.2784,0.2802,0.2789,0.2843,0.2929,0.2923,0.2854,0.278,0.28,0.266,0.2639,0.3044,0.2891,0.2612,0.2612,0.2612,0.2613,0.2613,0.2613,0.3261,0.3215,0.3173,0.2946,0.285,0.2684,0.2616,0.2531,0.2484,0.2362,0.2291,0.2344,0.2512,0.2591,0.2504,0.2445,0.2337,0.2234,0.2321,0.2622,0.2674,0.2724,0.2574,0.2234,0.2234,0.1758,0.1754,0.1752]},{"header":{"parameterUnit":"m.s-1","parameterCategory":2,"la1":30.2991,"la2":30.254,"lo1":-89.0895,"lo2":-89.0444,"dy":0.0017,"dx":0.0017,"nx":28,"ny":28,"refTime":"2026-02-04T03:00:00:Z","depth":"0","parameterNumber":3,"parameterNumberName":"V-component_of_CURRENTS"},"data":[0,0,0,0,0,0,0,0,0,0,0,0,0,0,0,0,0,0,0,0,0,0,0,0,0,0,0,0,0,0,0,0,0,0,0,0,0,0,0,0,0,0,0,0,0,0,0,0,0,0,0,0,0,0,0,0,0,0,-0.0903,-0.0902,0,-0.0869,-0.0869,-0.0869,-0.0905,-0.0905,-0.0906,-0.0907,-0.0961,-0.0962,-0.0963,0,0,0,0,0,0,0,0,0,0,0,0,0,-0.0911,-0.0912,-0.0903,-0.0902,-0.0901,-0.0868,-0.0869,-0.0869,-0.0904,-0.0905,-0.0906,-0.0907,-0.0961,-0.0962,-0.0963,0,0,0,0,0,0,0,0,0,0,0,0,0,-0.0902,-0.0912,-0.0903,-0.091,-0.0909,-0.0868,-0.0869,-0.0869,-0.0904,-0.0905,-0.0907,-0.0908,-0.0961,-0.0962,-0.0963,-0.0947,0,0,-0.0966,-0.0967,0,0,0,0,0,0,0,0,-0.0903,-0.0903,-0.091,-0.0909,-0.0909,-0.0886,-0.0891,-0.0897,-0.0904,-0.0914,-0.0907,-0.0908,-0.0939,-0.0942,-0.0942,-0.095,-0.0952,-0.0966,-0.0967,-0.0968,-0.0968,0,0,0,0,0,0,0,-0.0903,-0.0904,-0.0896,-0.0908,-0.0908,-0.0883,-0.0885,-0.0892,-0.0927,-0.0913,-0.0914,-0.0898,-0.094,-0.094,-0.0943,-0.0953,-0.0966,-0.0967,-0.0968,-0.0968,-0.0913,-0.0911,0,0,0,0,0,0,-0.0897,-0.0905,-0.0897,-0.0895,-0.09,-0.0882,-0.0884,-0.0898,-0.0925,-0.0928,-0.0897,-0.09,-0.0938,-0.0942,-0.0945,-0.0919,-0.0968,-0.0969,-0.0969,-0.0915,-0.0913,-0.091,0,0,0,0,0,0,-0.0898,-0.0898,-0.0899,-0.0891,-0.0889,-0.0881,-0.0896,-0.0896,-0.0899,-0.0911,-0.0917,-0.0898,-0.0939,-0.0944,-0.095,-0.0922,-0.0969,-0.097,-0.0918,-0.0914,-0.0911,-0.0874,0,0,0,0,0,0,-0.0899,-0.0899,-0.0906,-0.0892,-0.0889,-0.0896,-0.0894,-0.0895,-0.0884,-0.0887,-0.0914,-0.092,-0.094,-0.0948,-0.0951,-0.0925,-0.0971,-0.092,-0.0916,-0.0912,-0.0878,-0.087,-0.0863,0,0,0,0,0,-0.09,-0.0906,-0.0907,-0.0905,-0.09,-0.0896,-0.0894,-0.0894,-0.0883,-0.0898,-0.0896,-0.0919,-0.0923,-0.0948,-0.0952,-0.0925,-0.0922,-0.0917,-0.0913,-0.0881,-0.0871,-0.0863,0,0,0,0,0,0,-0.0933,-0.0909,-0.091,-0.0916,-0.0914,-0.09,-0.0898,-0.0888,-0.0896,-0.0892,-0.0908,-0.0914,-0.0906,-0.0913,-0.0939,-0.0891,-0.092,-0.0915,-0.0894,-0.0885,-0.0878,-0.0878,-0.0972,0,0,0,0,0,-0.0935,-0.0915,-0.0916,-0.0913,-0.0919,-0.0905,-0.0898,-0.0896,-0.0892,-0.0896,-0.0905,-0.0898,-0.0885,-0.0887,-0.089,-0.0871,-0.0871,-0.0848,-0.084,-0.0834,-0.0833,-0.0809,-0.08,-0.0894,-0.0894,-0.0895,0,0,-0.0924,-0.0921,-0.09,-0.0914,-0.0911,-0.0904,-0.0908,-0.0898,-0.0877,-0.09,-0.0884,-0.0884,-0.0875,-0.0856,-0.0851,-0.0862,-0.0802,-0.0828,-0.0824,-0.0826,-0.0803,-0.0795,-0.0787,-0.0891,-0.0892,-0.0892,0,0,-0.0899,-0.0921,-0.0896,-0.0906,-0.0901,-0.0896,-0.0893,-0.0886,-0.0882,-0.0861,-0.0857,-0.0837,-0.0832,-0.0813,-0.08,-0.0747,-0.0769,-0.0743,-0.0706,-0.0682,-0.0675,-0.0669,-0.0644,-0.0636,-0.0733,-0.0733,-0.0733,0,-0.0889,-0.0882,-0.089,-0.0893,-0.0882,-0.0892,-0.0874,-0.0871,-0.0857,-0.0839,-0.0855,-0.0802,-0.0802,-0.0751,-0.073,-0.0731,-0.0728,-0.0747,-0.0675,-0.0669,-0.0663,-0.064,-0.0632,-0.0731,-0.0731,-0.0731,-0.0732,0,-0.0854,-0.0856,-0.0853,-0.0848,-0.0844,-0.0837,-0.0833,-0.0825,-0.0808,-0.0792,-0.0755,-0.075,-0.0718,-0.0701,-0.0702,-0.0646,-0.066,-0.0677,-0.0706,-0.0652,-0.063,-0.0622,-0.0727,-0.0728,-0.0729,-0.073,0,0,-0.0826,-0.0817,-0.0827,-0.0812,-0.0821,-0.0812,-0.0783,-0.0757,-0.0718,-0.072,-0.0661,-0.0638,-0.0644,-0.0628,-0.0623,-0.0595,-0.0543,-0.0618,-0.0618,-0.0608,-0.0495,-0.0469,-0.0458,-0.0559,-0.0558,-0.0556,-0.0492,0,-0.08,-0.0783,-0.0782,-0.0752,-0.0743,-0.0743,-0.071,-0.0685,-0.0663,-0.0622,-0.061,-0.0572,-0.0614,-0.0588,-0.0572,-0.0547,-0.0523,-0.056,-0.0536,-0.0535,-0.0531,-0.0448,-0.0446,-0.0386,-0.0485,-0.0483,-0.0482,0,-0.0777,-0.0773,-0.0734,-0.0696,-0.0692,-0.0672,-0.0618,-0.0587,-0.0544,-0.0524,-0.0504,-0.0504,-0.0464,-0.0504,-0.0468,-0.0496,-0.0494,-0.0483,-0.0481,-0.0467,-0.0494,-0.0456,-0.0368,-0.0483,-0.0471,-0.0472,-0.0472,0,-0.0752,-0.0738,-0.0695,-0.0692,-0.0656,-0.0627,-0.0606,-0.056,-0.0504,-0.0468,-0.0412,-0.0414,-0.0364,-0.0393,-0.0378,-0.0428,-0.0322,-0.039,-0.0367,-0.0366,-0.0363,-0.0363,-0.0396,-0.0361,-0.0361,-0.0361,-0.0362,0,-0.0723,-0.0699,-0.0687,-0.0673,-0.0619,-0.0605,-0.0527,-0.0507,-0.0433,-0.033,-0.037,-0.027,-0.0331,-0.0281,-0.0329,-0.03,-0.029,-0.0339,-0.0337,-0.0346,-0.0346,-0.0446,-0.052,-0.0359,-0.0359,-0.036,-0.036,0,-0.0688,-0.0676,-0.0633,-0.061,-0.0599,-0.0563,-0.0481,-0.0412,-0.0366,-0.0226,-0.0205,-0.0137,-0.0074,-0.012,-0.0107,-0.0192,-0.0243,-0.0187,-0.0188,-0.0188,-0.033,-0.0401,-0.0412,-0.0441,-0.0189,-0.0188,-0.0187,0,-0.0653,-0.0635,-0.0603,-0.056,-0.0547,-0.0495,-0.0436,-0.0388,-0.0285,-0.0114,-0.0015,0.0074,0.0194,0.02,0.0072,-0.0005,-0.0126,-0.0088,-0.019,-0.0311,-0.039,-0.045,-0.0479,-0.0169,-0.0168,-0.0167,-0.0167,0,-0.0615,-0.0609,-0.0585,-0.0496,-0.0436,-0.0346,-0.0256,-0.0163,-0.0046,0.0101,0.0333,0.0436,0.0425,0.0381,0.0239,0.0145,-0.018,-0.0073,-0.0196,-0.0363,-0.0433,-0.0467,-0.0244,-0.0159,-0.016,-0.016,-0.0161,-0.0161,-0.0592,-0.0562,-0.0512,-0.0408,-0.032,-0.0159,-0.0043,0.0106,0.0319,0.0601,0.0622,0.0824,0.0622,0.0442,0.0284,-0.0065,-0.0082,-0.0207,-0.0276,-0.0322,-0.037,-0.0122,-0.0039,-0.0039,-0.0039,-0.0039,-0.0039,0,-0.0554,-0.0499,-0.0411,-0.0261,-0.0098,-0.0075,0.0128,0.0305,0.0616,0.0818,0.1036,0.1032,0.0797,0.0475,0.0003,-0.0239,-0.0355,-0.0381,-0.0496,-0.0511,-0.0285,-0.0307,-0.0281,-0.0281,-0.0281,-0.028,-0.028,-0.028,-0.0519,-0.0427,-0.0358,-0.0066,0.0062,0.0309,0.0458,0.0716,0.0907,0.1223,0.1332,0.1365,0.1098,0.0222,-0.0354,-0.0483,-0.0664,-0.0692,-0.0761,-0.0661,-0.0652,-0.0643,-0.0682,-0.0735,-0.0736,-0.0968,-0.0971,-0.0973]}],[{"header":{"parameterUnit":"m.s-1","parameterCategory":2,"la1":30.2991,"la2":30.254,"lo1":-89.0895,"lo2":-89.0444,"dy":0.0017,"dx":0.0017,"nx":28,"ny":28,"refTime":"2026-02-04T03:00:00:Z","depth":"2","parameterNumber":2,"parameterNumberName":"U-component_of_CURRENTS"},"data":[0,0,0,0,0,0,0,0,0,0,0,0,0,0,0,0,0,0,0,0,0,0,0,0,0,0,0,0,0,0,0,0,0,0,0,0,0,0,0,0,0,0,0,0,0,0,0,0,0,0,0,0,0,0,0,0,0,0,0.0513,0.0513,0,0.0538,0.0538,0.0539,0.0523,0.0522,0.0522,0.0521,0.0564,0.0566,0.0568,0,0,0,0,0,0,0,0,0,0,0,0,0,0.0483,0.0483,0.0513,0.0513,0.0513,0.0538,0.0538,0.0539,0.0523,0.0522,0.0521,0.0521,0.0564,0.0566,0.0568,0,0,0,0,0,0,0,0,0,0,0,0,0,0.0501,0.0483,0.0513,0.0508,0.0508,0.0538,0.0538,0.0539,0.0524,0.0522,0.0521,0.052,0.0563,0.0565,0.0568,0.0608,0,0,0.0577,0.0578,0,0,0,0,0,0,0,0,0.05,0.0502,0.0509,0.0509,0.0509,0.0526,0.0544,0.0563,0.0524,0.0518,0.0521,0.052,0.0554,0.0557,0.0565,0.061,0.0612,0.0577,0.0579,0.058,0.0581,0,0,0,0,0,0,0,0.0499,0.0501,0.0523,0.0509,0.0509,0.0516,0.0517,0.0547,0.0542,0.0518,0.0517,0.052,0.0554,0.0562,0.0566,0.0613,0.0577,0.0579,0.0581,0.0582,0.0716,0.0718,0,0,0,0,0,0,0.0495,0.05,0.0522,0.0524,0.0501,0.0517,0.0519,0.0522,0.0542,0.0543,0.0521,0.0519,0.0558,0.0562,0.0567,0.0666,0.058,0.0582,0.0584,0.0715,0.0717,0.0719,0,0,0,0,0,0,0.0494,0.0497,0.0521,0.0512,0.0516,0.0519,0.0523,0.0523,0.0547,0.0543,0.0545,0.0546,0.0557,0.0563,0.0607,0.0666,0.0584,0.0586,0.0712,0.0715,0.0718,0.0833,0,0,0,0,0,0,0.0493,0.0496,0.0509,0.0512,0.0516,0.0551,0.0524,0.0524,0.0549,0.0547,0.0566,0.0567,0.0557,0.0603,0.0609,0.0668,0.0588,0.071,0.0714,0.0717,0.0827,0.0839,0.085,0,0,0,0,0,0.0492,0.0507,0.0509,0.0512,0.0529,0.0552,0.0556,0.0554,0.0552,0.057,0.0581,0.0567,0.063,0.0607,0.0614,0.0675,0.0708,0.0713,0.0717,0.0821,0.0837,0.085,0,0,0,0,0,0,0.0505,0.0507,0.0509,0.0526,0.0545,0.055,0.0568,0.0573,0.0598,0.0601,0.0595,0.0599,0.066,0.0649,0.0624,0.0721,0.0667,0.0672,0.0744,0.0758,0.0769,0.0803,0.0591,0,0,0,0,0,0.0514,0.0524,0.0534,0.0552,0.0563,0.0575,0.0588,0.0592,0.0608,0.0617,0.0639,0.0657,0.0684,0.0703,0.0723,0.0783,0.0819,0.0824,0.0835,0.0846,0.0877,0.0985,0.1011,0.0733,0.0733,0.0733,0,0,0.0522,0.0528,0.0533,0.0556,0.057,0.0598,0.0581,0.0611,0.0646,0.0621,0.0689,0.0705,0.0707,0.0769,0.0796,0.0769,0.0943,0.0851,0.086,0.0886,0.0992,0.102,0.1044,0.0736,0.0735,0.0735,0,0,0.0542,0.0555,0.0569,0.059,0.0617,0.0631,0.0647,0.0677,0.0703,0.0757,0.0757,0.0818,0.0845,0.0883,0.0894,0.0987,0.1001,0.0981,0.1076,0.1181,0.1206,0.1228,0.1313,0.1342,0.0988,0.0989,0.0989,0,0.0558,0.0579,0.0581,0.0607,0.0633,0.065,0.0686,0.0718,0.0765,0.081,0.0787,0.0897,0.0907,0.1004,0.1034,0.1021,0.107,0.1023,0.1201,0.1223,0.1244,0.1326,0.1356,0.0995,0.0994,0.0993,0.0993,0,0.0585,0.0614,0.0631,0.0667,0.0694,0.0735,0.077,0.0827,0.0861,0.0898,0.1008,0.1038,0.1108,0.1121,0.1106,0.1261,0.1245,0.1205,0.1172,0.128,0.1357,0.1387,0.1003,0.1001,0.0999,0.0998,0,0,0.0659,0.0643,0.0692,0.0683,0.0736,0.0762,0.0838,0.0921,0.0986,0.1056,0.116,0.1237,0.1278,0.1297,0.1311,0.1405,0.1594,0.1377,0.138,0.1475,0.183,0.1606,0.1616,0.1589,0.1594,0.1599,0.1827,0,0.071,0.0757,0.0755,0.0814,0.082,0.0856,0.0924,0.1,0.1064,0.1171,0.1253,0.1345,0.1334,0.1385,0.1488,0.1566,0.1678,0.1537,0.17,0.1705,0.1504,0.1645,0.1546,0.1721,0.1856,0.186,0.1864,0,0.0798,0.0799,0.0867,0.0852,0.0872,0.0932,0.1053,0.1097,0.1236,0.1285,0.1409,0.1462,0.1639,0.1588,0.1832,0.1744,0.1816,0.1865,0.1874,0.1649,0.1536,0.1633,0.177,0.1913,0.1909,0.1906,0.1903,0,0.0852,0.0904,0.0959,0.0967,0.0965,0.1034,0.1065,0.1179,0.1234,0.1387,0.1473,0.1635,0.1756,0.1882,0.2002,0.1938,0.2246,0.2157,0.2034,0.2018,0.1957,0.1923,0.2349,0.2349,0.2349,0.2348,0.2347,0,0.0888,0.0988,0.1012,0.1,0.1107,0.1092,0.1192,0.1251,0.1359,0.1493,0.1559,0.1707,0.1843,0.2016,0.2084,0.2164,0.2328,0.2095,0.2077,0.1985,0.1953,0.2121,0.2092,0.2356,0.2355,0.2353,0.2352,0,0.1018,0.1019,0.1109,0.1121,0.1102,0.1244,0.1244,0.1325,0.1411,0.1602,0.1671,0.1827,0.2044,0.2158,0.2369,0.226,0.2352,0.234,0.22,0.2155,0.2031,0.2005,0.221,0.2204,0.2199,0.2195,0.2192,0,0.1116,0.1118,0.119,0.1223,0.1259,0.1342,0.136,0.1389,0.1509,0.1701,0.186,0.2047,0.2192,0.2332,0.2265,0.2312,0.239,0.2129,0.1946,0.2063,0.2027,0.2008,0.1989,0.1952,0.1947,0.1943,0.1939,0,0.1179,0.1255,0.1263,0.1371,0.1445,0.1483,0.155,0.1605,0.1725,0.1873,0.2093,0.2169,0.2266,0.2182,0.2115,0.2115,0.2082,0.2027,0.2314,0.192,0.1815,0.1778,0.1771,0.1902,0.1906,0.1909,0.1911,0.1912,0.1275,0.1365,0.1337,0.1546,0.1616,0.1681,0.1658,0.1754,0.1879,0.2028,0.2149,0.2158,0.2077,0.1858,0.1838,0.1772,0.1848,0.172,0.1738,0.176,0.1606,0.149,0.1491,0.1493,0.1494,0.1495,0.1496,0,0.133,0.1336,0.1436,0.1607,0.173,0.1759,0.181,0.1769,0.1904,0.1976,0.2053,0.1796,0.1677,0.1671,0.1484,0.134,0.1399,0.131,0.1417,0.1453,0.1485,0.1321,0.113,0.1129,0.1127,0.1126,0,0,0.1298,0.1367,0.1482,0.1691,0.178,0.187,0.1879,0.1816,0.1814,0.1724,0.1656,0.1596,0.1589,0.1322,0.1266,0.1197,0.1334,0.1166,0.1468,0.1636,0.1667,0.1729,0.1515,0,0,0,0,0]},{"header":{"parameterUnit":"m.s-1","parameterCategory":2,"la1":30.2991,"la2":30.254,"lo1":-89.0895,"lo2":-89.0444,"dy":0.0017,"dx":0.0017,"nx":28,"ny":28,"refTime":"2026-02-04T03:00:00:Z","depth":"2","parameterNumber":3,"parameterNumberName":"V-component_of_CURRENTS"},"data":[0,0,0,0,0,0,0,0,0,0,0,0,0,0,0,0,0,0,0,0,0,0,0,0,0,0,0,0,0,0,0,0,0,0,0,0,0,0,0,0,0,0,0,0,0,0,0,0,0,0,0,0,0,0,0,0,0,0,0.0365,0.0365,0,0.0295,0.0294,0.0293,0.0224,0.0223,0.0222,0.0221,0.0111,0.0109,0.0107,0,0,0,0,0,0,0,0,0,0,0,0,0,0.0409,0.0409,0.0366,0.0365,0.0364,0.0295,0.0294,0.0293,0.0224,0.0223,0.0222,0.0221,0.0112,0.0109,0.0107,0,0,0,0,0,0,0,0,0,0,0,0,0,0.037,0.0409,0.0366,0.032,0.0316,0.0295,0.0294,0.0293,0.0225,0.0223,0.0222,0.022,0.0113,0.011,0.0107,0.0117,0,0,0.0097,0.0096,0,0,0,0,0,0,0,0,0.0372,0.0369,0.0328,0.0324,0.0318,0.0266,0.0269,0.0232,0.0225,0.026,0.0221,0.022,0.016,0.0153,0.0145,0.0112,0.0107,0.0097,0.0095,0.0094,0.0093,0,0,0,0,0,0,0,0.0375,0.0371,0.0338,0.0327,0.0321,0.0292,0.0286,0.0261,0.0219,0.0257,0.0252,0.0243,0.0157,0.0148,0.0141,0.0106,0.0097,0.0095,0.0093,0.0091,0.0038,0.0038,0,0,0,0,0,0,0.0386,0.0374,0.0341,0.0336,0.0341,0.0293,0.0285,0.0285,0.022,0.0209,0.0244,0.024,0.0154,0.0145,0.0137,0.0138,0.0094,0.0091,0.0089,0.0038,0.0038,0.0039,0,0,0,0,0,0,0.0387,0.0384,0.0343,0.0352,0.0345,0.0294,0.0294,0.0284,0.0261,0.021,0.0198,0.0229,0.0152,0.0141,0.0111,0.0133,0.009,0.0087,0.0037,0.0038,0.0038,0.0145,0,0,0,0,0,0,0.0389,0.0385,0.0388,0.0353,0.0345,0.0337,0.0295,0.0284,0.0258,0.0252,0.0194,0.0183,0.015,0.0116,0.0108,0.0129,0.0085,0.0037,0.0037,0.0038,0.0141,0.0149,0.0156,0,0,0,0,0,0.0391,0.0405,0.0389,0.0385,0.0351,0.0337,0.0331,0.029,0.0259,0.0261,0.0216,0.0184,0.0115,0.0114,0.0105,0.0125,0.0036,0.0037,0.0038,0.0138,0.0148,0.0156,0,0,0,0,0,0,0.0423,0.0398,0.038,0.0384,0.0364,0.0325,0.0321,0.029,0.0257,0.0243,0.0191,0.0178,0.016,0.0124,0.0124,0.0109,0.007,0.0069,0.0149,0.0158,0.0165,0.0225,0.0082,0,0,0,0,0,0.0434,0.0438,0.0407,0.0411,0.0402,0.036,0.0347,0.032,0.0285,0.0268,0.0225,0.0183,0.016,0.0143,0.0113,0.0107,0.0092,0.0111,0.0119,0.0126,0.0167,0.0151,0.0163,0.0042,0.0042,0.0042,0,0,0.0449,0.0433,0.0436,0.0418,0.0397,0.0406,0.0349,0.0333,0.0342,0.0262,0.0254,0.0206,0.0163,0.0157,0.0146,0.0128,0.0149,0.0127,0.0134,0.0172,0.0154,0.0166,0.0177,0.0042,0.0042,0.0042,0,0,0.0483,0.0466,0.0481,0.0472,0.0444,0.043,0.0427,0.0386,0.0368,0.035,0.0302,0.0279,0.0222,0.0217,0.0203,0.0236,0.0188,0.0204,0.0297,0.0281,0.0292,0.0301,0.0291,0.0299,0.021,0.021,0.0211,0,0.0499,0.0514,0.0484,0.0495,0.0503,0.0448,0.0475,0.0456,0.041,0.0419,0.0357,0.0316,0.0265,0.0299,0.0303,0.026,0.0236,0.0268,0.0295,0.0303,0.0311,0.0299,0.0306,0.0216,0.0215,0.0214,0.0214,0,0.0547,0.0556,0.0564,0.0572,0.0583,0.059,0.0574,0.0574,0.0535,0.0517,0.0515,0.0447,0.0434,0.0402,0.036,0.0399,0.0359,0.0305,0.0281,0.0331,0.0313,0.0319,0.0223,0.0221,0.022,0.0218,0,0,0.0558,0.0597,0.0581,0.0624,0.0624,0.0643,0.0677,0.0704,0.0741,0.0675,0.0722,0.0665,0.0623,0.0607,0.0547,0.0529,0.0545,0.0446,0.0443,0.0456,0.0511,0.0422,0.0419,0.0484,0.0486,0.0487,0.0475,0,0.0593,0.0643,0.0655,0.0724,0.0764,0.0767,0.0821,0.084,0.0827,0.0854,0.0799,0.0793,0.0702,0.0685,0.0665,0.0573,0.0566,0.0554,0.0446,0.0445,0.0374,0.0425,0.0368,0.0347,0.0481,0.0481,0.0482,0,0.0614,0.0653,0.0711,0.0836,0.0854,0.0888,0.0982,0.1025,0.1058,0.104,0.1037,0.0983,0.0971,0.0859,0.0778,0.0767,0.0669,0.0587,0.0583,0.0477,0.0367,0.0317,0.0351,0.0491,0.049,0.049,0.0489,0,0.0635,0.0702,0.0755,0.0779,0.0887,0.0933,0.1005,0.1065,0.1091,0.1147,0.1142,0.1144,0.1099,0.1008,0.0834,0.0806,0.0724,0.0658,0.0501,0.0493,0.0418,0.04,0.0621,0.0621,0.0621,0.0621,0.0621,0,0.0684,0.0706,0.0753,0.0795,0.0896,0.0964,0.1059,0.1139,0.1177,0.1213,0.1223,0.1247,0.1123,0.105,0.0909,0.0725,0.078,0.0551,0.0494,0.0448,0.0434,0.0534,0.0524,0.0621,0.0621,0.0621,0.0621,0,0.0658,0.0687,0.0724,0.083,0.0907,0.0935,0.1072,0.1112,0.1174,0.1215,0.122,0.1286,0.1234,0.1092,0.0952,0.079,0.0641,0.0558,0.0516,0.0455,0.0412,0.0407,0.0416,0.0413,0.0411,0.0409,0.0407,0,0.0639,0.0671,0.0738,0.0781,0.0815,0.0903,0.0988,0.1083,0.1097,0.1238,0.1241,0.1267,0.1291,0.1093,0.083,0.0595,0.061,0.0378,0.0317,0.0452,0.0396,0.0395,0.0394,0.026,0.0257,0.0254,0.0252,0,0.0652,0.062,0.0669,0.0722,0.0774,0.088,0.0994,0.1018,0.1109,0.1178,0.132,0.1389,0.1214,0.1011,0.0679,0.0519,0.0415,0.032,0.0488,0.0307,0.0299,0.0245,0.025,0.0232,0.0234,0.0235,0.0236,0.0237,0.0621,0.0609,0.0661,0.0691,0.0739,0.0861,0.0982,0.107,0.118,0.1313,0.1345,0.1403,0.1157,0.0732,0.0489,0.0226,0.0255,0.0138,0.0148,0.016,0.0131,0.0117,0.0011,0.0012,0.0013,0.0014,0.0014,0,0.0619,0.0671,0.0703,0.0756,0.0796,0.083,0.0996,0.1119,0.129,0.1317,0.1418,0.1154,0.0909,0.0671,0.0213,-0.0039,-0.0025,-0.0069,-0.0014,0.0005,0.0023,-0.001,-0.0168,-0.0168,-0.0169,-0.0169,0,0,0.0651,0.0688,0.0694,0.08,0.085,0.0943,0.1049,0.126,0.1325,0.1434,0.1375,0.1256,0.0919,0.0549,0.0246,0.0036,0.009,0.0007,0.0163,0.0279,0.03,0.0134,0.0102,0,0,0,0,0]}],[{"header":{"parameterUnit":"m.s-1","parameterCategory":2,"la1":30.2991,"la2":30.254,"lo1":-89.0895,"lo2":-89.0444,"dy":0.0017,"dx":0.0017,"nx":28,"ny":28,"refTime":"2026-02-04T03:00:00:Z","depth":"4","parameterNumber":2,"parameterNumberName":"U-component_of_CURRENTS"},"data":[0,0,0,0,0,0,0,0,0,0,0,0,0,0,0,0,0,0,0,0,0,0,0,0,0,0,0,0,0,0,0,0,0,0,0,0,0,0,0,0,0,0,0,0,0,0,0,0,0,0,0,0,0,0,0,0,0,0,-0.0294,-0.0294,0,-0.028,-0.028,-0.028,-0.0279,-0.0279,-0.0279,-0.0279,-0.0253,-0.0253,-0.0252,0,0,0,0,0,0,0,0,0,0,0,0,0,-0.0311,-0.0311,-0.0294,-0.0294,-0.0293,-0.028,-0.028,-0.028,-0.0279,-0.0279,-0.0279,-0.0279,-0.0254,-0.0253,-0.0252,0,0,0,0,0,0,0,0,0,0,0,0,0,-0.0302,-0.0311,-0.0294,-0.029,-0.0289,-0.028,-0.028,-0.028,-0.0279,-0.0279,-0.0279,-0.0279,-0.0254,-0.0253,-0.0252,-0.0245,0,0,-0.0249,-0.0248,0,0,0,0,0,0,0,0,-0.0303,-0.0302,-0.0291,-0.029,-0.029,-0.028,-0.0277,-0.0267,-0.0279,-0.0284,-0.0279,-0.0279,-0.026,-0.0259,-0.0258,-0.0244,-0.0243,-0.0249,-0.0248,-0.0248,-0.0247,0,0,0,0,0,0,0,-0.0304,-0.0303,-0.029,-0.0291,-0.029,-0.0286,-0.0285,-0.0275,-0.0273,-0.0284,-0.0283,-0.028,-0.026,-0.0259,-0.0258,-0.0243,-0.0249,-0.0248,-0.0247,-0.0247,-0.0134,-0.0132,0,0,0,0,0,0,-0.0303,-0.0303,-0.029,-0.0289,-0.0295,-0.0286,-0.0285,-0.0284,-0.0274,-0.0272,-0.028,-0.028,-0.0261,-0.0259,-0.0257,-0.0196,-0.0248,-0.0247,-0.0246,-0.0137,-0.0134,-0.0131,0,0,0,0,0,0,-0.0303,-0.0302,-0.0291,-0.0295,-0.0293,-0.0285,-0.0285,-0.0284,-0.0276,-0.027,-0.0268,-0.0271,-0.0261,-0.0258,-0.024,-0.0197,-0.0246,-0.0245,-0.0139,-0.0136,-0.0132,-0.0108,0,0,0,0,0,0,-0.0304,-0.0302,-0.0305,-0.0295,-0.0292,-0.0279,-0.0285,-0.0284,-0.0273,-0.0273,-0.0263,-0.0261,-0.0261,-0.0241,-0.0239,-0.0196,-0.0244,-0.0142,-0.0138,-0.0134,-0.0112,-0.0104,-0.0097,0,0,0,0,0,-0.0305,-0.0302,-0.0306,-0.0304,-0.0296,-0.0278,-0.0277,-0.0272,-0.0273,-0.0266,-0.0259,-0.0261,-0.021,-0.024,-0.0237,-0.0193,-0.0145,-0.0139,-0.0134,-0.0115,-0.0105,-0.0097,0,0,0,0,0,0,-0.0312,-0.0301,-0.0305,-0.0301,-0.0289,-0.0277,-0.0275,-0.0267,-0.0257,-0.0256,-0.0252,-0.0249,-0.021,-0.0203,-0.0236,-0.0142,-0.0168,-0.0162,-0.0154,-0.0145,-0.0138,-0.0118,-0.0244,0,0,0,0,0,-0.0315,-0.0312,-0.03,-0.0297,-0.0293,-0.0283,-0.0277,-0.0268,-0.0256,-0.0252,-0.0241,-0.0217,-0.0185,-0.0171,-0.0149,-0.0113,-0.0131,-0.0073,-0.0065,-0.006,-0.0038,-0.0044,-0.0037,-0.0114,-0.0114,-0.0114,0,0,-0.0321,-0.0312,-0.0313,-0.0298,-0.0295,-0.0276,-0.028,-0.0264,-0.024,-0.025,-0.0219,-0.02,-0.0171,-0.0126,-0.0104,-0.0117,-0.0051,-0.0053,-0.0049,-0.0029,-0.0038,-0.0031,-0.0025,-0.011,-0.0111,-0.0111,0,0,-0.032,-0.0321,-0.0316,-0.0302,-0.0285,-0.027,-0.0262,-0.0242,-0.0227,-0.0188,-0.0184,-0.0148,-0.0099,-0.0077,-0.0055,0.0006,-0.0016,0.0034,0.0086,0.0079,0.0084,0.0089,0.0047,0.0047,0.0041,0.0041,0.0041,0,-0.0327,-0.0316,-0.0311,-0.0295,-0.0277,-0.0264,-0.0242,-0.0223,-0.0194,-0.0165,-0.0167,-0.0078,-0.0071,-0.0007,0.0025,0.0021,0.0006,0.0041,0.0084,0.0089,0.0093,0.0049,0.0049,0.0043,0.0042,0.0042,0.0042,0,-0.0318,-0.0307,-0.03,-0.0274,-0.0253,-0.0232,-0.02,-0.0172,-0.014,-0.0104,-0.0032,-0.0019,0.0047,0.0058,0.0065,0.0121,0.0094,0.0083,0.005,0.0101,0.0052,0.0052,0.0045,0.0045,0.0044,0.0044,0,0,-0.0333,-0.0301,-0.0298,-0.0278,-0.0236,-0.0212,-0.0166,-0.0107,-0.0054,-0.0015,0.0055,0.0113,0.0143,0.0171,0.0177,0.0175,0.0174,0.0158,0.0157,0.0097,0.0141,0.0171,0.0173,0.0171,0.0172,0.0173,0.0082,0,-0.0326,-0.0292,-0.0272,-0.0227,-0.0204,-0.0166,-0.0114,-0.0054,0.0005,0.0074,0.0111,0.0187,0.018,0.0225,0.0225,0.0191,0.0183,0.0199,0.012,0.0118,0.0122,0.0178,0.0176,0.0082,0.0082,0.0081,0.0081,0,-0.0318,-0.0292,-0.0252,-0.0186,-0.0171,-0.0126,-0.0028,0.0026,0.0123,0.0173,0.0251,0.0285,0.032,0.0301,0.0264,0.0278,0.0234,0.0188,0.0183,0.0212,0.0151,0.0032,0.0081,0.0081,0.0081,0.0081,0.0081,0,-0.0319,-0.0273,-0.0235,-0.0216,-0.0142,-0.0094,-0.003,0.0073,0.0137,0.0254,0.0306,0.0356,0.0379,0.0343,0.0262,0.0281,0.0178,0.0181,0.0156,0.0154,0.0134,0.013,0.0162,0.0162,0.0162,0.0162,0.0162,0,-0.0307,-0.0279,-0.0225,-0.0202,-0.0125,-0.0065,0.0048,0.0113,0.0224,0.0296,0.0372,0.0391,0.0396,0.034,0.0272,0.0202,0.0182,0.0185,0.0154,0.0144,0.0143,0.0131,0.0128,0.0159,0.0159,0.016,0.0161,0,-0.0307,-0.0283,-0.0239,-0.0161,-0.0123,-0.0056,0.0087,0.0168,0.0266,0.0353,0.0393,0.0424,0.0377,0.0327,0.0236,0.0215,0.0134,0.0104,0.0065,0.0027,0.0115,0.0115,0.0122,0.0123,0.0123,0.0124,0.0124,0,-0.0303,-0.0282,-0.0212,-0.0177,-0.0133,-0.002,0.0065,0.019,0.0261,0.0335,0.035,0.036,0.0367,0.0252,0.0195,0.0105,0.0097,0.0066,0.016,0.0153,0.012,0.0119,0.0119,0.0125,0.0126,0.0126,0.0126,0,-0.0298,-0.0279,-0.0243,-0.0171,-0.0093,-0.0001,0.0115,0.0162,0.0281,0.035,0.0361,0.0366,0.0311,0.0259,0.02,0.0114,0.0109,0.0074,0.0074,0.0162,0.0157,0.0124,0.0122,0.0128,0.0128,0.0128,0.0128,0,-0.0294,-0.0277,-0.0236,-0.0165,-0.0087,-0.0015,0.0062,0.0153,0.0239,0.0335,0.0297,0.0284,0.0291,0.0254,0.0149,0.0136,0.017,0.0189,0.0184,0.0181,0.0247,0.0253,0.0246,0,0,0,0,0,-0.0285,-0.0271,-0.0226,-0.0156,-0.0083,-0.0038,0.0071,0.0141,0.0232,0.0263,0.0311,0.027,0.0248,0.02,0.0201,0.0145,0.0129,0.0144,0.0139,0.0141,0.0139,0.0213,0,0,0,0,0,0,-0.0283,-0.0256,-0.024,-0.0169,-0.0122,-0.0033,0.0026,0.0089,0.0127,0.0207,0.0185,0.027,0.0217,0.0238,0.019,0.0185,0.0187,0.0149,0.015,0.0143,0.014,0.0138,0.0214,0,0,0,0,0]},{"header":{"parameterUnit":"m.s-1","parameterCategory":2,"la1":30.2991,"la2":30.254,"lo1":-89.0895,"lo2":-89.0444,"dy":0.0017,"dx":0.0017,"nx":28,"ny":28,"refTime":"2026-02-04T03:00:00:Z","depth":"4","parameterNumber":3,"parameterNumberName":"V-component_of_CURRENTS"},"data":[0,0,0,0,0,0,0,0,0,0,0,0,0,0,0,0,0,0,0,0,0,0,0,0,0,0,0,0,0,0,0,0,0,0,0,0,0,0,0,0,0,0,0,0,0,0,0,0,0,0,0,0,0,0,0,0,0,0,0.0509,0.051,0,0.0513,0.0513,0.0513,0.0529,0.053,0.0531,0.0531,0.0564,0.0564,0.0564,0,0,0,0,0,0,0,0,0,0,0,0,0,0.0479,0.048,0.0509,0.051,0.051,0.0513,0.0513,0.0513,0.0529,0.053,0.0531,0.0532,0.0564,0.0564,0.0564,0,0,0,0,0,0,0,0,0,0,0,0,0,0.0485,0.048,0.0509,0.0522,0.0523,0.0514,0.0513,0.0513,0.0529,0.053,0.0531,0.0532,0.0564,0.0564,0.0564,0.0544,0,0,0.0565,0.0565,0,0,0,0,0,0,0,0,0.0485,0.0486,0.0519,0.0521,0.0522,0.0525,0.0515,0.0526,0.0529,0.0523,0.0531,0.0533,0.0555,0.0556,0.0549,0.0545,0.0547,0.0565,0.0565,0.0565,0.0565,0,0,0,0,0,0,0,0.0484,0.0486,0.0507,0.052,0.0522,0.0515,0.0517,0.0516,0.053,0.0523,0.0525,0.0532,0.0556,0.0548,0.055,0.0547,0.0565,0.0565,0.0565,0.0566,0.0534,0.0533,0,0,0,0,0,0,0.0492,0.0485,0.0507,0.0508,0.051,0.0515,0.0517,0.052,0.053,0.0533,0.0531,0.0532,0.0547,0.0549,0.0551,0.0542,0.0565,0.0566,0.0566,0.0535,0.0534,0.0533,0,0,0,0,0,0,0.0492,0.0494,0.0507,0.05,0.0502,0.0515,0.0518,0.052,0.0528,0.0536,0.0539,0.054,0.0548,0.0551,0.0565,0.0543,0.0566,0.0566,0.0536,0.0535,0.0533,0.0514,0,0,0,0,0,0,0.0491,0.0494,0.0503,0.05,0.0502,0.051,0.0517,0.0519,0.0531,0.0533,0.0544,0.0547,0.0549,0.0564,0.0565,0.0544,0.0566,0.0537,0.0535,0.0534,0.0516,0.0512,0.0509,0,0,0,0,0,0.0489,0.0498,0.0503,0.0506,0.0513,0.0511,0.0511,0.0521,0.0531,0.0532,0.0543,0.0548,0.0552,0.0565,0.0565,0.0543,0.0538,0.0536,0.0534,0.0518,0.0513,0.0509,0,0,0,0,0,0,0.0488,0.05,0.0506,0.0518,0.052,0.0516,0.0525,0.0526,0.0533,0.0543,0.0548,0.0551,0.055,0.0551,0.0564,0.0526,0.054,0.0538,0.0527,0.0523,0.0519,0.0508,0.0566,0,0,0,0,0,0.0492,0.0505,0.0508,0.0519,0.0523,0.0524,0.0528,0.0531,0.0536,0.0541,0.0549,0.0549,0.0535,0.0537,0.0533,0.0522,0.0501,0.0503,0.0499,0.0496,0.0486,0.0426,0.0415,0.0525,0.0525,0.0525,0,0,0.0497,0.0505,0.0514,0.0521,0.0525,0.0526,0.0528,0.0537,0.0536,0.0543,0.0554,0.0545,0.0531,0.0516,0.0513,0.0518,0.0457,0.0493,0.0491,0.0482,0.0422,0.0411,0.0402,0.0524,0.0524,0.0524,0,0,0.0505,0.0518,0.0529,0.0529,0.0539,0.0537,0.0543,0.0544,0.0547,0.0553,0.0544,0.0521,0.053,0.0493,0.048,0.0452,0.0442,0.0453,0.0425,0.0366,0.0356,0.0348,0.0322,0.0311,0.0448,0.0448,0.0448,0,0.0511,0.0522,0.053,0.0533,0.0538,0.0544,0.0546,0.0543,0.0549,0.0536,0.0562,0.0511,0.0509,0.0445,0.0437,0.0441,0.0423,0.0445,0.0361,0.0352,0.0343,0.0318,0.0306,0.0447,0.0447,0.0447,0.0447,0,0.0517,0.0529,0.0535,0.0544,0.0544,0.0551,0.0547,0.0544,0.0554,0.0541,0.0502,0.0483,0.0445,0.0432,0.0434,0.0355,0.0368,0.0367,0.0373,0.033,0.0308,0.0296,0.0445,0.0445,0.0446,0.0446,0,0,0.0525,0.0539,0.0543,0.0545,0.0552,0.055,0.0543,0.0525,0.0502,0.0499,0.045,0.0418,0.0396,0.0376,0.0351,0.0299,0.0232,0.0311,0.0309,0.0288,0.0125,0.0134,0.0122,0.0218,0.0215,0.0213,0.0139,0,0.0531,0.0546,0.0545,0.0551,0.0558,0.0547,0.0537,0.0516,0.0498,0.0453,0.0403,0.0367,0.0377,0.0351,0.0295,0.0242,0.0197,0.0253,0.0167,0.0164,0.0178,0.0106,0.0205,0.013,0.0128,0.0126,0.0124,0,0.0537,0.0548,0.0564,0.0553,0.0553,0.056,0.0527,0.0513,0.0446,0.0423,0.0358,0.0324,0.0239,0.026,0.0144,0.0183,0.0155,0.0121,0.0117,0.012,0.0149,0.0176,0.0102,0.0104,0.0105,0.0107,0.0108,0,0.0546,0.0553,0.0572,0.0573,0.0566,0.0567,0.0566,0.0516,0.0495,0.0405,0.0366,0.0264,0.0213,0.0146,0.0094,0.0114,-0.0028,-0.0011,-0.003,-0.0028,-0.0001,0.0009,-0.0095,-0.0095,-0.0095,-0.0095,-0.0095,0,0.0551,0.0561,0.0588,0.0597,0.0605,0.0595,0.0588,0.0548,0.0492,0.0445,0.0364,0.0276,0.0182,0.0096,0.0059,-0.0026,-0.0054,-0.0056,-0.0064,-0.0004,0.0006,-0.0009,0.0002,-0.0097,-0.0097,-0.0096,-0.0096,0,0.0558,0.0576,0.0595,0.061,0.0618,0.0631,0.0636,0.0621,0.0558,0.0485,0.046,0.0286,0.016,0.0084,-0.0046,-0.0069,-0.0146,-0.016,-0.0081,-0.0079,-0.0095,-0.0084,-0.0209,-0.0209,-0.021,-0.021,-0.0211,0,0.0562,0.0579,0.0618,0.0636,0.0656,0.0682,0.07,0.0668,0.0638,0.048,0.0428,0.0276,0.0171,-0.001,-0.0103,-0.0184,-0.0179,-0.0204,-0.0165,-0.0121,-0.0115,-0.0103,-0.0092,-0.0212,-0.0212,-0.0212,-0.0212,0,0.0559,0.0589,0.0605,0.0661,0.0701,0.0722,0.0736,0.07,0.0634,0.0593,0.0405,0.0276,0.0113,-0.0036,-0.009,-0.0151,-0.019,-0.021,-0.0209,-0.0173,-0.0126,-0.0117,-0.0105,-0.0214,-0.0214,-0.0214,-0.0214,0,0.0557,0.0579,0.0621,0.0669,0.0738,0.0748,0.0728,0.0685,0.0649,0.0491,0.0418,0.0233,0.0125,-0.0023,-0.0094,-0.0139,-0.0145,-0.0134,-0.0137,-0.0136,-0.0088,-0.0016,-0.0101,0,0,0,0,0,0.0548,0.058,0.0621,0.0668,0.075,0.0786,0.0756,0.0716,0.0647,0.0548,0.0491,0.0347,0.0163,0.0025,-0.0015,-0.0105,-0.0154,-0.0155,-0.014,-0.0225,-0.0223,-0.0179,0,0,0,0,0,0,0.0539,0.0577,0.0617,0.0702,0.0744,0.0805,0.0789,0.0705,0.0627,0.054,0.0433,0.0389,0.0202,0.0236,0.0012,-0.0019,-0.0009,-0.0238,-0.0238,-0.0227,-0.0224,-0.0223,-0.0176,0,0,0,0,0]}]]